| time (UTC) | temp F | wind direction | speed knots | gust knots | rain 1hr in | rain 24hr in | rain mn in | humidity % | barometer mb |
| 20260906133004 | 61 | 58 | 5.2 | 0.0 | 0.00 | 0.00 | 0.00 | 88 | 990.5 |
| 20260906131505 | 60 | 56 | 5.2 | 0.0 | 0.00 | 0.00 | 0.00 | 88 | 990.5 |
| 20260906130004 | 59 | 55 | 6.1 | 0.0 | 0.00 | 0.00 | 0.00 | 88 | 990.5 |
| 20260906124504 | 58 | 53 | 5.2 | 0.0 | 0.00 | 0.00 | 0.00 | 94 | 990.3 |
| 20260906123006 | 57 | 50 | 4.3 | 0.0 | 0.00 | 0.00 | 0.00 | 94 | 990.3 |
| 20260906121504 | 55 | 51 | 3.5 | 0.0 | 0.00 | 0.00 | 0.00 | 94 | 990.3 |
| 20260906120005 | 54 | 53 | 3.5 | 0.0 | 0.00 | 0.00 | 0.00 | 94 | 990.3 |
| 20260906114505 | 53 | 55 | 3.5 | 0.0 | 0.00 | 0.00 | 0.00 | 92 | 988.8 |
| 20260906113004 | 53 | 43 | 3.5 | 0.0 | 0.00 | 0.00 | 0.00 | 92 | 990.1 |
| 20260906111504 | 53 | 55 | 3.5 | 0.0 | 0.00 | 0.00 | 0.00 | 92 | 990.2 |
| 20260906110005 | 54 | 55 | 3.5 | 0.0 | 0.00 | 0.00 | 0.00 | 92 | 990.2 |
| 20260906104505 | 54 | 43 | 3.5 | 0.0 | 0.00 | 0.00 | 0.00 | 90 | 989.3 |
| 20260906103008 | 54 | 40 | 2.6 | 0.0 | 0.00 | 0.00 | 0.00 | 90 | 990.1 |
| 20260906101504 | 54 | 50 | 2.6 | 0.0 | 0.00 | 0.00 | 0.00 | 90 | 990.1 |
| 20260906100006 | 55 | 52 | 2.6 | 0.0 | 0.00 | 0.00 | 0.00 | 90 | 990.1 |
| 20260906094507 | 55 | 43 | 2.6 | 0.0 | 0.00 | 0.00 | 0.00 | 89 | 989.4 |
| 20260906093007 | 55 | 31 | 2.6 | 0.0 | 0.00 | 0.00 | 0.00 | 89 | 990.1 |
| 20260906091504 | 55 | 40 | 2.6 | 0.0 | 0.00 | 0.00 | 0.00 | 89 | 990.1 |
| 20260906090005 | 55 | 47 | 3.5 | 0.0 | 0.00 | 0.00 | 0.00 | 89 | 990.1 |
| 20260906084507 | 56 | 43 | 2.6 | 0.0 | 0.00 | 0.00 | 0.00 | 89 | 989.3 |
| 20260906083005 | 56 | 36 | 2.6 | 0.0 | 0.00 | 0.00 | 0.00 | 87 | 989.6 |
| 20260906081507 | 57 | 57 | 3.5 | 0.0 | 0.00 | 0.00 | 0.00 | 83 | 989.5 |
| 20260906080005 | 57 | 57 | 3.5 | 0.0 | 0.00 | 0.00 | 0.00 | 83 | 989.5 |
| 20260906074505 | 58 | 62 | 3.5 | 0.0 | 0.00 | 0.00 | 0.00 | 80 | 988.5 |
| 20260906073004 | 58 | 60 | 3.5 | 0.0 | 0.00 | 0.00 | 0.00 | 80 | 988.5 |
| 20260906071507 | 58 | 61 | 3.5 | 0.0 | 0.00 | 0.00 | 0.00 | 80 | 988.5 |
| 20260906070007 | 59 | 61 | 3.5 | 0.0 | 0.00 | 0.00 | 0.00 | 80 | 988.5 |
| 20260906064517 | 59 | 61 | 3.5 | 0.0 | 0.00 | 0.00 | 0.00 | 77 | 988.2 |
| 20260906063007 | 59 | 60 | 3.5 | 0.0 | 0.00 | 0.00 | 0.00 | 74 | 988.6 |
| 20260906061505 | 60 | 60 | 3.5 | 0.0 | 0.00 | 0.00 | 0.00 | 74 | 988.6 |
| 20260906060007 | 60 | 66 | 3.5 | 0.0 | 0.00 | 0.00 | 0.00 | 74 | 988.6 |
| 20260906054506 | 60 | 70 | 3.5 | 0.0 | 0.00 | 0.00 | 0.00 | 72 | 988.5 |
| 20260906053006 | 60 | 65 | 3.5 | 0.0 | 0.00 | 0.00 | 0.00 | 69 | 988.2 |
| 20260906051506 | 61 | 67 | 3.5 | 0.0 | 0.00 | 0.00 | 0.00 | 69 | 988.2 |
| 20260906050006 | 61 | 65 | 3.5 | 0.0 | 0.00 | 0.00 | 0.00 | 69 | 988.2 |
| 20260906044506 | 62 | 66 | 4.3 | 0.0 | 0.00 | 0.00 | 0.00 | 73 | 988.3 |
| 20260906043007 | 62 | 62 | 4.3 | 0.0 | 0.00 | 0.00 | 0.00 | 75 | 988.2 |
| 20260906041505 | 63 | 59 | 4.3 | 0.0 | 0.00 | 0.00 | 0.00 | 75 | 988.2 |
| 20260906040005 | 63 | 59 | 4.3 | 0.0 | 0.00 | 0.00 | 0.00 | 75 | 988.2 |
| 20260906034505 | 63 | 59 | 5.2 | 0.0 | 0.00 | 0.00 | 0.00 | 72 | 988.1 |
| 20260906033006 | 64 | 60 | 4.3 | 0.0 | 0.00 | 0.00 | 0.00 | 74 | 988.5 |
| 20260906031505 | 64 | 60 | 6.1 | 0.0 | 0.00 | 0.00 | 0.00 | 74 | 988.5 |
| 20260906030005 | 65 | 59 | 6.1 | 0.0 | 0.00 | 0.00 | 0.00 | 74 | 988.5 |
| 20260906024505 | 65 | 57 | 5.2 | 0.0 | 0.00 | 0.00 | 0.00 | 79 | 987.0 |
| 20260906023005 | 66 | 59 | 5.2 | 0.0 | 0.00 | 0.00 | 0.00 | 75 | 987.5 |
| 20260906021505 | 66 | 61 | 5.2 | 0.0 | 0.00 | 0.00 | 0.00 | 75 | 987.5 |
| 20260906020005 | 67 | 62 | 5.2 | 0.0 | 0.00 | 0.00 | 0.00 | 75 | 987.5 |
| 20260906014505 | 67 | 57 | 5.2 | 0.0 | 0.00 | 0.00 | 0.00 | 70 | 986.8 |
| 20260906013005 | 68 | 60 | 5.2 | 0.0 | 0.00 | 0.00 | 0.00 | 70 | 986.8 |
| 20260906011504 | 68 | 62 | 6.1 | 0.0 | 0.00 | 0.00 | 0.00 | 70 | 986.8 |
| 20260906010006 | 68 | 59 | 6.1 | 0.0 | 0.00 | 0.00 | 0.00 | 70 | 986.8 |
| 20260906004504 | 68 | 62 | 5.2 | 0.0 | 0.00 | 0.00 | 0.00 | 70 | 986.9 |
| 20260906003005 | 69 | 54 | 5.2 | 0.0 | 0.00 | 0.00 | 0.00 | 68 | 986.9 |
| 20260906001504 | 69 | 38 | 4.3 | 0.0 | 0.00 | 0.00 | 0.00 | 68 | 986.9 |
| 20260906000008 | 70 | 31 | 4.3 | 0.0 | 0.00 | 0.00 | 0.00 | 68 | 986.9 |
| 20260905234507 | 72 | 23 | 4.3 | 0.0 | 0.00 | 0.02 | 0.02 | 62 | 986.8 |
| 20260905233004 | 73 | 34 | 4.3 | 0.0 | 0.00 | 0.02 | 0.02 | 62 | 986.8 |
| 20260905231507 | 73 | 35 | 5.2 | 0.0 | 0.00 | 0.02 | 0.02 | 62 | 986.8 |
| 20260905230008 | 74 | 36 | 6.1 | 0.0 | 0.00 | 0.02 | 0.02 | 62 | 986.8 |
| 20260905224507 | 75 | 39 | 6.1 | 0.0 | 0.00 | 0.02 | 0.02 | 62 | 986.4 |
| 20260905223007 | 76 | 53 | 6.1 | 0.0 | 0.00 | 0.02 | 0.02 | 61 | 987.0 |
| 20260905221507 | 76 | 59 | 6.1 | 0.0 | 0.00 | 0.02 | 0.02 | 61 | 987.0 |
| 20260905220007 | 77 | 61 | 7.0 | 0.0 | 0.00 | 0.02 | 0.02 | 61 | 987.0 |
| 20260905214507 | 77 | 58 | 7.0 | 0.0 | 0.00 | 0.02 | 0.02 | 70 | 986.7 |
| 20260905213007 | 77 | 55 | 6.1 | 0.0 | 0.00 | 0.02 | 0.02 | 71 | 987.1 |
| 20260905211507 | 76 | 57 | 7.0 | 0.0 | 0.00 | 0.02 | 0.02 | 71 | 987.1 |
| 20260905210007 | 76 | 58 | 6.1 | 0.0 | 0.00 | 0.02 | 0.02 | 71 | 987.1 |
| 20260905204507 | 75 | 54 | 6.1 | 0.0 | 0.00 | 0.02 | 0.02 | 76 | 986.3 |
| 20260905203007 | 75 | 55 | 7.0 | 0.0 | 0.00 | 0.02 | 0.02 | 77 | 986.7 |
| 20260905201507 | 75 | 63 | 5.2 | 0.0 | 0.00 | 0.02 | 0.02 | 77 | 986.7 |
| 20260905200006 | 74 | 65 | 4.3 | 0.0 | 0.00 | 0.02 | 0.02 | 77 | 986.7 |
| 20260905194507 | 73 | 66 | 2.6 | 0.0 | 0.00 | 0.02 | 0.02 | 73 | 986.6 |
| 20260905193007 | 72 | 67 | 1.7 | 0.0 | 0.00 | 0.02 | 0.02 | 73 | 986.6 |
| 20260905191507 | 77 | 69 | 4.3 | 0.0 | 0.00 | 0.02 | 0.02 | 73 | 986.8 |
| 20260905190008 | 75 | 82 | 2.6 | 0.0 | 0.00 | 0.02 | 0.02 | 73 | 986.8 |
| 20260905184507 | 74 | 98 | 0.9 | 0.0 | 0.00 | 0.02 | 0.02 | 89 | 987.3 |
| 20260905183007 | 74 | 70 | 5.2 | 0.0 | 0.00 | 0.02 | 0.02 | 78 | 987.5 |
| 20260905181506 | 74 | 80 | 4.3 | 0.0 | 0.00 | 0.02 | 0.02 | 78 | 987.5 |
| 20260905180008 | 74 | 87 | 3.5 | 0.0 | 0.00 | 0.02 | 0.02 | 78 | 987.5 |
| 20260905174507 | 73 | 93 | 3.5 | 0.0 | 0.02 | 0.02 | 0.02 | 89 | 987.5 |
| 20260905173008 | 71 | 99 | 3.5 | 0.0 | 0.02 | 0.02 | 0.02 | 71 | 986.8 |
| 20260905171507 | 75 | 86 | 5.2 | 0.0 | 0.00 | 0.00 | 0.00 | 71 | 987.1 |
| 20260905170009 | 74 | 82 | 5.2 | 0.0 | 0.00 | 0.00 | 0.00 | 71 | 987.1 |
| 20260905164507 | 74 | 75 | 5.2 | 0.0 | 0.00 | 0.00 | 0.00 | 83 | 987.5 |
| 20260905163008 | 73 | 69 | 6.1 | 0.0 | 0.00 | 0.00 | 0.00 | 77 | 986.4 |
| 20260905161505 | 72 | 75 | 6.1 | 0.0 | 0.00 | 0.00 | 0.00 | 77 | 986.4 |
| 20260905160007 | 73 | 79 | 6.1 | 0.0 | 0.00 | 0.00 | 0.00 | 77 | 986.4 |
| 20260905154507 | 72 | 85 | 6.1 | 0.0 | 0.00 | 0.00 | 0.00 | 82 | 987.8 |
| 20260905153007 | 71 | 85 | 6.1 | 0.0 | 0.00 | 0.00 | 0.00 | 87 | 986.5 |
| 20260905151507 | 69 | 73 | 6.1 | 0.0 | 0.00 | 0.00 | 0.00 | 87 | 986.4 |
| 20260905150007 | 69 | 69 | 5.2 | 0.0 | 0.00 | 0.00 | 0.00 | 87 | 986.4 |
| 20260905144516 | 68 | 69 | 5.2 | 0.0 | 0.00 | 0.00 | 0.00 | 88 | 987.1 |
| 20260905143004 | 68 | 65 | 5.2 | 0.0 | 0.00 | 0.00 | 0.00 | 88 | 986.6 |
| 20260905141507 | 68 | 72 | 6.1 | 0.0 | 0.00 | 0.00 | 0.00 | 88 | 986.5 |
| 20260905140008 | 68 | 61 | 6.1 | 0.0 | 0.00 | 0.00 | 0.00 | 88 | 986.5 |
| 20260905134507 | 68 | 57 | 5.2 | 0.0 | 0.00 | 0.00 | 0.00 | 94 | 985.7 |